Time,TemperatureF,DewpointF,PressureIn,WindDirection,WindDirectionDegrees,WindSpeedMPH,WindSpeedGustMPH,Humidity,HourlyPrecipIn,Conditions,Clouds,dailyrainin,SolarRadiationWatts/m^2,SoftwareType,DateUTC
2013-07-04 00:00:00,81.0,49.0,-100.00,NNW,335,5.0,9.0,32,-99.99,,,0.00,0.000000,,2013-07-04 07:00:00,
2013-07-04 00:43:00,81.0,49.0,-100.00,NNW,335,5.0,9.0,32,-99.99,,,0.00,0.000000,,2013-07-04 07:43:00,
2013-07-04 00:52:00,81.0,49.0,-100.00,NNW,335,5.0,9.0,32,-99.99,,,0.00,0.000000,,2013-07-04 07:52:00,
2013-07-04 01:00:00,77.0,51.0,-100.00,NNE,13,3.0,8.0,40,-99.99,,,0.00,0.000000,,2013-07-04 08:00:00,
2013-07-04 01:42:00,77.0,51.0,-100.00,NNE,13,3.0,8.0,40,-99.99,,,0.00,0.000000,,2013-07-04 08:42:00,
2013-07-04 01:53:00,77.0,51.0,-100.00,NNE,13,3.0,8.0,40,-99.99,,,0.00,0.000000,,2013-07-04 08:53:00,
2013-07-04 03:00:00,73.0,54.0,-100.00,WNW,295,4.0,6.0,50,-99.99,,,0.00,0.000000,,2013-07-04 10:00:00,
2013-07-04 03:42:00,73.0,54.0,-100.00,WNW,295,4.0,6.0,50,-99.99,,,0.00,0.000000,,2013-07-04 10:42:00,
2013-07-04 03:53:00,73.0,54.0,-100.00,WNW,295,4.0,6.0,50,-99.99,,,0.00,0.000000,,2013-07-04 10:53:00,
2013-07-04 04:00:00,72.0,53.0,-100.00,NNW,328,5.0,8.0,50,-99.99,,,0.00,0.000000,,2013-07-04 11:00:00,
2013-07-04 04:43:00,72.0,53.0,-100.00,NNW,328,5.0,8.0,50,-99.99,,,0.00,0.000000,,2013-07-04 11:43:00,
2013-07-04 04:53:00,72.0,53.0,-100.00,NNW,328,5.0,8.0,50,-99.99,,,0.00,0.000000,,2013-07-04 11:53:00,
2013-07-04 05:00:00,68.0,52.0,-100.00,WNW,298,3.0,4.0,55,-99.99,,,0.00,0.000000,,2013-07-04 12:00:00,
2013-07-04 05:43:00,68.0,52.0,-100.00,WNW,298,3.0,4.0,55,-99.99,,,0.00,0.000000,,2013-07-04 12:43:00,
2013-07-04 05:52:00,68.0,52.0,-100.00,WNW,298,3.0,4.0,55,-99.99,,,0.00,0.000000,,2013-07-04 12:52:00,
2013-07-04 06:00:00,66.0,52.0,-100.00,WSW,256,3.0,4.0,60,-99.99,,,0.00,19.059999,,2013-07-04 13:00:00,
2013-07-04 06:53:00,66.0,52.0,-100.00,WSW,256,3.0,4.0,60,-99.99,,,0.00,19.059999,,2013-07-04 13:53:00,
2013-07-04 07:00:00,71.0,53.0,-100.00,WSW,244,1.0,3.0,52,-99.99,,,0.00,128.770004,,2013-07-04 14:00:00,
2013-07-04 07:43:00,71.0,53.0,-100.00,WSW,244,1.0,3.0,52,-99.99,,,0.00,128.770004,,2013-07-04 14:43:00,
2013-07-04 07:53:00,71.0,53.0,-100.00,WSW,244,1.0,3.0,52,-99.99,,,0.00,128.770004,,2013-07-04 14:53:00,
2013-07-04 08:00:00,77.0,53.0,-100.00,West,271,2.0,4.0,43,-99.99,,,0.00,359.820007,,2013-07-04 15:00:00,
2013-07-04 08:43:00,77.0,53.0,-100.00,West,271,2.0,4.0,43,-99.99,,,0.00,359.820007,,2013-07-04 15:43:00,
2013-07-04 08:52:00,77.0,53.0,-100.00,West,271,2.0,4.0,43,-99.99,,,0.00,359.820007,,2013-07-04 15:52:00,
2013-07-04 09:00:00,81.0,54.0,-100.00,ENE,76,2.0,4.0,39,-99.99,,,-99.99,539.840027,,2013-07-04 16:00:00,
2013-07-04 09:42:00,81.0,54.0,-100.00,ENE,76,2.0,4.0,39,-99.99,,,-99.99,539.840027,,2013-07-04 16:42:00,
2013-07-04 09:52:00,81.0,54.0,-100.00,ENE,76,2.0,4.0,39,-99.99,,,-99.99,539.840027,,2013-07-04 16:52:00,
2013-07-04 10:00:00,83.0,52.0,-100.00,NE,56,3.0,6.0,34,-99.99,,,0.00,712.890015,,2013-07-04 17:00:00,
2013-07-04 10:43:00,83.0,52.0,-100.00,NE,56,3.0,6.0,34,-99.99,,,0.00,712.890015,,2013-07-04 17:43:00,
2013-07-04 10:53:00,83.0,52.0,-100.00,NE,56,3.0,6.0,34,-99.99,,,0.00,712.890015,,2013-07-04 17:53:00,
2013-07-04 11:00:00,86.0,53.0,-100.00,WNW,285,3.0,7.0,32,-99.99,,,0.00,851.780029,,2013-07-04 18:00:00,
2013-07-04 11:43:00,86.0,53.0,-100.00,WNW,285,3.0,7.0,32,-99.99,,,0.00,851.780029,,2013-07-04 18:43:00,
2013-07-04 11:52:00,86.0,53.0,-100.00,WNW,285,3.0,7.0,32,-99.99,,,0.00,851.780029,,2013-07-04 18:52:00,
2013-07-04 12:00:00,88.0,53.0,-100.00,SW,222,5.0,10.0,29,-99.99,,,0.00,942.539978,,2013-07-04 19:00:00,
2013-07-04 12:43:00,88.0,53.0,-100.00,SW,222,5.0,10.0,29,-99.99,,,0.00,942.539978,,2013-07-04 19:43:00,
2013-07-04 12:53:00,88.0,53.0,-100.00,SW,222,5.0,10.0,29,-99.99,,,0.00,942.539978,,2013-07-04 19:53:00,
2013-07-04 13:00:00,90.0,48.0,-100.00,SW,216,6.0,9.0,23,-99.99,,,0.00,972.760010,,2013-07-04 20:00:00,
2013-07-04 13:42:00,90.0,48.0,-100.00,SW,216,6.0,9.0,23,-99.99,,,0.00,972.760010,,2013-07-04 20:42:00,
2013-07-04 13:53:00,90.0,48.0,-100.00,SW,216,6.0,9.0,23,-99.99,,,0.00,972.760010,,2013-07-04 20:53:00,
2013-07-04 14:00:00,95.0,51.0,-100.00,SW,232,4.0,11.0,22,-99.99,,,0.00,992.520020,,2013-07-04 21:00:00,
2013-07-04 14:43:00,95.0,51.0,-100.00,SW,232,4.0,11.0,22,-99.99,,,0.00,992.520020,,2013-07-04 21:43:00,
2013-07-04 14:53:00,95.0,51.0,-100.00,SW,232,4.0,11.0,22,-99.99,,,0.00,992.520020,,2013-07-04 21:53:00,
2013-07-04 15:00:00,92.0,48.0,-100.00,South,185,5.0,8.0,22,-99.99,,,0.00,185.600006,,2013-07-04 22:00:00,
2013-07-04 15:43:00,92.0,48.0,-100.00,South,185,5.0,8.0,22,-99.99,,,0.00,185.600006,,2013-07-04 22:43:00,
2013-07-04 15:52:00,92.0,48.0,-100.00,South,185,5.0,8.0,22,-99.99,,,0.00,185.600006,,2013-07-04 22:52:00,
2013-07-04 16:00:00,92.0,51.0,-100.00,SSE,153,5.0,7.0,24,-99.99,,,0.00,201.639999,,2013-07-04 23:00:00,
2013-07-04 16:42:00,92.0,51.0,-100.00,SSE,153,5.0,7.0,24,-99.99,,,0.00,201.639999,,2013-07-04 23:42:00,
2013-07-04 16:52:00,92.0,51.0,-100.00,SSE,153,5.0,7.0,24,-99.99,,,0.00,201.639999,,2013-07-04 23:52:00,
2013-07-04 18:00:00,83.0,49.0,-100.00,SSE,167,5.0,15.0,31,-99.99,,,0.00,19.870001,,2013-07-05 01:00:00,
2013-07-04 18:42:00,83.0,49.0,-100.00,SSE,167,5.0,15.0,31,-99.99,,,0.00,19.870001,,2013-07-05 01:42:00,
2013-07-04 18:52:00,83.0,49.0,-100.00,SSE,167,5.0,15.0,31,-99.99,,,0.00,19.870001,,2013-07-05 01:52:00,
2013-07-04 20:00:00,70.0,62.0,-100.00,WSW,245,2.0,6.0,76,-99.99,,,0.00,3.840000,,2013-07-05 03:00:00,
2013-07-04 20:42:00,70.0,62.0,-100.00,WSW,245,2.0,6.0,76,-99.99,,,0.00,3.840000,,2013-07-05 03:42:00,
2013-07-04 21:00:00,74.0,60.0,-100.00,West,261,3.0,5.0,62,-99.99,,,0.00,0.000000,,2013-07-05 04:00:00,
2013-07-04 21:43:00,74.0,60.0,-100.00,West,261,3.0,5.0,62,-99.99,,,0.00,0.000000,,2013-07-05 04:43:00,
2013-07-04 21:53:00,74.0,60.0,-100.00,West,261,3.0,5.0,62,-99.99,,,0.00,0.000000,,2013-07-05 04:53:00,
2013-07-04 22:00:00,72.0,60.0,-100.00,SSW,205,3.0,5.0,66,-99.99,,,0.00,0.000000,,2013-07-05 05:00:00,
2013-07-04 22:43:00,72.0,60.0,-100.00,SSW,205,3.0,5.0,66,-99.99,,,0.00,0.000000,,2013-07-05 05:43:00,
2013-07-04 22:52:00,72.0,60.0,-100.00,SSW,205,3.0,5.0,66,-99.99,,,0.00,0.000000,,2013-07-05 05:52:00,
2013-07-04 23:00:00,69.0,57.0,-100.00,SSE,168,1.0,2.0,66,-99.99,,,0.00,0.000000,,2013-07-05 06:00:00,
2013-07-04 23:43:00,69.0,57.0,-100.00,SSE,168,1.0,2.0,66,-99.99,,,0.00,0.000000,,2013-07-05 06:43:00,
2013-07-04 23:53:00,69.0,57.0,-100.00,SSE,168,1.0,2.0,66,-99.99,,,0.00,0.000000,,2013-07-05 06:53:00,